Eastman, GA

12:41 AM EST on November 19, 2017 (GMT -0500)
Heart Of Georgia Regional

Weather History for KEZM - September, 2012

Change the Weather History Date:

Saturday, September 1, 2012

  Actual Average Record
Temperature  
Mean Temperature 82 °F -  
Max Temperature 93 °F 89 °F 96 °F (2014)
Min Temperature 71 °F 69 °F 67 °F (2015)
Cooling Degree Days 17    
Growing Degree Days 32 (Base 50)    
Moisture  
Dew Point 73 °F    
Average Humidity 80    
Maximum Humidity 100    
Minimum Humidity 45    
Precipitation  
Precipitation 0.00 in - - ()
Sea Level Pressure  
Sea Level Pressure 30.16 in    
Wind  
Wind Speed 1 mph ()    
Max Wind Speed 9 mph    
Max Gust Speed -    
Visibility 7.5 miles    
Events Fog    
Averages and records for this station are not official NWS values.
T = Trace of Precipitation, MM = Missing Value Source: Averaged Metar Reports

Daily Weather History Graph

Daily Weather History Graph

Search for Another Location

Airport or City:

Trip Planner

Search our weather history database for the weather conditions in past years. The results will help you decide how hot, cold, wet, or windy it might be!

Date:

Astronomy

Sep. 01, 2012 Rise Set
Actual Time 7:07 AM EDT 7:56 PM EDT
Civil Twilight 6:43 AM EDT 8:21 PM EDT
Nautical Twilight 6:13 AM EDT 8:50 PM EDT
Astronomical Twilight 5:43 AM EDT 9:20 PM EDT
Moon 8:21 PM EDT (9/1) 8:06 AM EDT (9/1)
Length of Visible Light 13h 38m
Length of Day
12h 48m
Full, 99% of the Moon is Illuminated
Sep 1
Full
Sep 8
Last Quarter
Sep 15
New
Sep 22
First Quarter
Sep 29
Full

Hourly Weather History & Observations

Time (EDT) Temp. Heat Index Dew Point Humidity Pressure Visibility Wind Dir Wind Speed Gust Speed Precip Events Conditions
12:15 AM 74.8 °F - 74.8 °F 100% 30.19 in 0.5 mi Calm Calm - N/A Fog Fog
12:35 AM 74.8 °F - 74.8 °F 100% 30.19 in 4.0 mi Calm Calm - N/A   Scattered Clouds
1:15 AM 74.5 °F - 74.5 °F 100% 30.19 in 4.0 mi Calm Calm - N/A   Clear
1:35 AM 74.5 °F - 74.5 °F 100% 30.19 in 1.2 mi Calm Calm - N/A   Mist
1:55 AM 74.3 °F - 74.3 °F 100% 30.18 in 0.2 mi Calm Calm - N/A Fog Fog
2:15 AM 75.2 °F - 75.2 °F 100% 30.18 in 5.0 mi Calm Calm - N/A   Clear
2:35 AM 74.5 °F - 74.5 °F 100% 30.17 in 1.0 mi Calm Calm - N/A   Mist
2:55 AM 74.1 °F - 74.1 °F 100% 30.17 in 0.8 mi Calm Calm - N/A   Mist
3:15 AM 74.8 °F - 74.8 °F 100% 30.17 in 7.0 mi Calm Calm - N/A   Clear
3:35 AM 74.7 °F - 74.7 °F 100% 30.17 in 5.0 mi Calm Calm - N/A   Clear
3:55 AM 74.7 °F - 74.7 °F 100% 30.16 in 4.0 mi Calm Calm - N/A   Clear
4:15 AM 74.5 °F - 74.5 °F 100% 30.16 in 7.0 mi Calm Calm - N/A   Clear
4:35 AM 73.6 °F - 73.6 °F 100% 30.16 in 1.5 mi Calm Calm - N/A   Mist
4:55 AM 73.4 °F - 73.4 °F 100% 30.17 in 1.0 mi Calm Calm - N/A   Mist
5:15 AM 72.7 °F - 72.7 °F 100% 30.17 in 0.5 mi Calm Calm - N/A Fog Fog
5:35 AM 72.5 °F - 72.5 °F 100% 30.17 in 3.0 mi Calm Calm - N/A   Clear
5:55 AM 72.1 °F - 72.1 °F 100% 30.18 in 1.0 mi Calm Calm - N/A   Mist
6:15 AM 72.7 °F - 72.7 °F 100% 30.18 in 2.5 mi Calm Calm - N/A   Clear
6:35 AM 72.0 °F - 72.0 °F 100% 30.19 in 1.2 mi Calm Calm - N/A   Mist
6:55 AM 72.3 °F - 72.3 °F 100% 30.19 in 2.5 mi Calm Calm - N/A   Clear
7:15 AM 71.6 °F - 71.6 °F 100% 30.20 in 0.8 mi Calm Calm - N/A   Mist
7:35 AM 71.6 °F - 71.6 °F 100% 30.20 in 2.5 mi Calm Calm - N/A   Mostly Cloudy
7:55 AM 73.0 °F - 73.0 °F 100% 30.20 in 4.0 mi Calm Calm - N/A   Scattered Clouds
8:15 AM 74.8 °F - 74.8 °F 100% 30.21 in 4.0 mi Calm Calm - N/A   Clear
8:35 AM 76.3 °F - 76.3 °F 100% 30.21 in 7.0 mi Calm Calm - N/A   Clear
8:55 AM 78.6 °F - 77.5 °F 96% 30.21 in 10.0 mi Calm Calm - N/A   Clear
9:15 AM 81.1 °F 88.7 °F 77.7 °F 89% 30.21 in 10.0 mi West 3.5 mph - N/A   Clear
9:35 AM 82.8 °F 90.4 °F 75.6 °F 79% 30.21 in 10.0 mi West 4.6 mph - N/A   Clear
9:55 AM 83.8 °F 90.8 °F 73.9 °F 72% 30.22 in 10.0 mi West 3.5 mph - N/A   Clear
10:15 AM 85.1 °F 92.9 °F 74.1 °F 70% 30.22 in 10.0 mi WSW 3.5 mph - N/A   Clear
10:35 AM 86.5 °F 94.6 °F 73.8 °F 66% 30.22 in 10.0 mi WSW 3.5 mph - N/A   Clear
10:55 AM 86.2 °F 93.4 °F 73.0 °F 65% 30.23 in 10.0 mi Calm Calm - N/A   Clear
11:15 AM 87.8 °F 95.2 °F 72.9 °F 61% 30.23 in 10.0 mi West 3.5 mph - N/A   Scattered Clouds
11:35 AM 88.7 °F 95.2 °F 71.6 °F 57% 30.22 in 10.0 mi NW 4.6 mph - N/A   Scattered Clouds
11:55 AM 89.2 °F 94.9 °F 70.9 °F 54% 30.22 in 10.0 mi WSW 3.5 mph - N/A   Scattered Clouds
12:15 PM 89.8 °F 96.5 °F 71.4 °F 55% 30.21 in 10.0 mi Calm Calm - N/A   Clear
12:35 PM 90.9 °F 97.8 °F 71.8 °F 53% 30.21 in 10.0 mi Calm Calm - N/A   Clear
12:55 PM 91.2 °F 100.8 °F 74.1 °F 57% 30.20 in 10.0 mi NE 9.2 mph - N/A   Mostly Cloudy
1:15 PM 91.2 °F 98.5 °F 71.8 °F 53% 30.19 in 10.0 mi ENE 4.6 mph - N/A   Mostly Cloudy
1:35 PM 92.3 °F 98.6 °F 70.9 °F 49% 30.18 in 10.0 mi North 4.6 mph - N/A   Scattered Clouds
1:55 PM 92.8 °F 98.1 °F 69.1 °F 46% 30.17 in 10.0 mi North 6.9 mph - N/A   Scattered Clouds
2:15 PM 93.6 °F 99.0 °F 69.3 °F 45% 30.16 in 10.0 mi Calm Calm - N/A   Scattered Clouds
2:35 PM 91.2 °F 96.0 °F 69.1 °F 48% 30.15 in 10.0 mi ESE 3.5 mph - N/A   Mostly Cloudy
2:55 PM 91.0 °F 96.6 °F 70.2 °F 50% 30.15 in 10.0 mi WSW 4.6 mph - N/A   Overcast
3:15 PM 89.6 °F 96.2 °F 71.2 °F 55% 30.14 in 10.0 mi NNE 3.5 mph - N/A   Overcast
3:35 PM 90.0 °F 96.4 °F 71.2 °F 54% 30.12 in 10.0 mi Calm Calm - N/A   Scattered Clouds
3:55 PM 91.4 °F 97.3 °F 70.2 °F 50% 30.12 in 10.0 mi NW 3.5 mph - N/A   Clear
4:15 PM 90.5 °F 98.1 °F 72.5 °F 55% 30.12 in 10.0 mi Calm Calm - N/A   Clear
4:35 PM 91.8 °F 98.1 °F 70.7 °F 50% 30.12 in 10.0 mi SSE 6.9 mph - N/A   Clear
4:55 PM 89.8 °F 95.6 °F 70.5 °F 53% 30.10 in 10.0 mi SSE 4.6 mph - N/A   Clear
5:15 PM 91.2 °F 97.5 °F 70.5 °F 51% 30.10 in 10.0 mi SE 3.5 mph - N/A   Clear
5:35 PM 91.8 °F 96.5 °F 68.7 °F 47% 30.09 in 10.0 mi ESE 4.6 mph - N/A   Clear
5:55 PM 91.9 °F 96.4 °F 68.5 °F 46% 30.09 in 10.0 mi SE 3.5 mph - N/A   Clear
6:15 PM 91.6 °F 96.2 °F 68.5 °F 47% 30.09 in 10.0 mi SSE 3.5 mph - N/A   Clear
6:35 PM 87.6 °F 92.7 °F 70.2 °F 56% 30.10 in 10.0 mi Calm Calm - N/A   Clear
6:55 PM 85.6 °F 92.2 °F 72.5 °F 65% 30.10 in 10.0 mi Calm Calm - N/A   Clear
7:15 PM 83.3 °F 89.9 °F 73.9 °F 73% 30.10 in 10.0 mi Calm Calm - N/A   Clear
7:35 PM 83.5 °F 90.0 °F 73.4 °F 72% 30.10 in 10.0 mi West 3.5 mph - N/A   Clear
7:55 PM 82.6 °F 88.3 °F 73.0 °F 73% 30.11 in 10.0 mi Calm Calm - N/A   Clear
8:15 PM 80.6 °F 85.7 °F 74.3 °F 81% 30.11 in 10.0 mi Calm Calm - N/A   Clear
8:35 PM 78.4 °F - 75.7 °F 91% 30.11 in 10.0 mi Calm Calm - N/A   Clear
8:55 PM 78.3 °F - 76.8 °F 95% 30.12 in 10.0 mi Calm Calm - N/A   Clear
9:15 PM 77.5 °F - 76.3 °F 96% 30.12 in 10.0 mi SSW 3.5 mph - N/A   Clear
9:35 PM 78.3 °F - 76.8 °F 95% 30.12 in 10.0 mi Calm Calm - N/A   Clear
9:55 PM 77.7 °F - 76.8 °F 97% 30.12 in 10.0 mi Calm Calm - N/A   Clear
10:15 PM 77.4 °F - 76.3 °F 96% 30.12 in 10.0 mi Calm Calm - N/A   Clear
10:35 PM 76.5 °F - 76.3 °F 99% 30.12 in 10.0 mi Calm Calm - N/A   Clear
10:55 PM 76.8 °F - 76.8 °F 100% 30.13 in 10.0 mi Calm Calm - N/A   Clear
11:15 PM 76.5 °F - 76.5 °F 100% 30.13 in 10.0 mi Calm Calm - N/A   Clear
11:35 PM 77.2 °F - 76.1 °F 96% 30.12 in 10.0 mi Calm Calm - N/A   Clear
11:55 PM 77.4 °F - 76.1 °F 96% 30.12 in 10.0 mi Calm Calm - N/A   Clear